Theta_e
324 328 330 329 328 325 325 326 327 331 333 333 332 332 333 333 333 332 332 334 330 330 333 329 328 328 328 327 326 326 326 327 328 327 326 326 325 325 324 324 322 321 319 315 314 314 315 318 321 324 326 327 328 328 328 328 328 328 328 327 326 326 325 325 324 324 324 324 325 326 326 326 326 327 327 327 327 326 326 326 327 327 328 329 329 330
324 330 330 328 327 326 325 325 326 328 330 334 334 332 332 332 333 332 333 335 330 329 335 333 331 329 327 328 327 326 327 326 325 326 325 325 325 325 326 326 325 324 322 320 318 316 315 315 316 319 323 325 326 327 328 328 328 328 328 327 327 326 325 325 325 324 324 324 324 324 325 325 326 326 326 326 326 326 326 326 327 327 327 328 329 329
327 329 328 325 325 326 326 326 326 327 328 333 335 335 335 333 334 334 332 334 330 329 337 337 333 331 328 328 328 327 327 327 325 325 325 325 325 325 326 326 325 326 325 325 323 318 316 316 315 315 318 321 324 325 326 327 328 328 327 327 327 326 325 325 325 324 324 324 324 324 324 324 325 325 325 325 325 326 326 326 327 327 327 327 328 328
328 327 324 324 325 325 326 326 327 328 328 330 333 335 336 336 335 335 334 334 330 330 336 337 333 331 330 329 329 328 328 328 327 326 326 326 326 326 327 326 326 326 326 326 325 322 318 317 316 315 315 318 321 323 325 326 327 327 327 328 327 327 326 325 325 325 324 324 324 324 324 324 324 324 325 325 325 326 326 326 326 326 327 327 327 328
327 325 323 323 324 323 326 328 328 329 329 330 331 333 335 336 335 335 333 331 330 329 330 332 334 333 331 331 330 329 329 328 328 328 327 326 326 326 326 326 326 326 326 326 326 325 322 318 316 316 316 316 318 321 323 324 326 326 327 327 327 327 327 326 326 325 325 324 324 323 323 323 323 323 323 324 324 325 325 325 325 325 326 326 327 327
325 324 323 323 324 324 325 328 328 329 330 330 330 330 333 335 335 335 333 331 335 336 330 332 338 338 334 334 332 331 331 329 327 327 327 327 326 326 326 326 325 325 326 325 325 326 324 320 318 317 317 315 316 319 321 322 323 325 325 326 327 327 327 326 326 325 325 324 324 323 323 323 323 323 323 323 323 324 324 324 324 324 325 325 326 326
324 324 325 325 325 325 326 326 327 328 330 331 331 330 331 334 336 336 336 336 339 339 333 332 337 339 336 333 332 333 333 331 330 328 327 326 326 326 326 325 325 325 325 325 325 325 324 321 318 317 316 315 317 318 319 320 321 323 325 326 327 327 327 326 326 325 324 324 324 323 323 323 323 323 323 323 323 323 323 323 323 323 324 324 325 325
324 325 326 326 325 326 326 325 326 327 329 331 332 331 331 333 336 336 337 338 336 335 335 332 333 336 335 332 330 331 332 331 332 329 327 326 325 326 326 325 325 325 325 326 325 325 324 321 318 318 318 317 318 319 318 319 321 322 324 325 326 327 327 327 326 325 325 324 324 324 324 323 323 323 323 324 323 323 323 323 323 323 323 323 324 324
323 324 325 325 325 325 325 324 325 326 328 331 333 332 331 332 334 334 335 336 332 333 337 334 333 336 336 334 332 331 331 330 330 329 328 328 326 325 325 324 325 325 325 325 324 325 323 320 318 319 319 318 318 318 317 319 320 321 323 324 325 326 327 327 327 326 325 325 324 324 324 324 323 324 324 324 323 323 323 323 323 323 323 323 323 323
323 323 323 324 325 325 326 327 327 327 327 330 332 331 332 332 333 334 334 333 330 332 337 335 334 337 337 335 335 333 332 329 329 329 327 327 327 326 324 324 324 323 323 323 323 323 322 320 320 320 319 319 318 318 318 318 319 320 321 323 325 326 326 327 327 326 326 325 324 324 324 324 324 323 323 323 323 323 323 323 323 323 323 323 323 323
323 321 321 323 323 324 327 329 328 326 327 329 331 331 332 331 332 333 332 331 332 334 335 333 332 335 336 335 333 333 333 331 331 331 328 328 329 328 325 323 323 322 322 323 323 322 319 318 319 319 318 318 318 317 317 317 317 318 320 322 324 325 326 326 327 326 326 325 325 324 324 324 324 324 324 323 323 323 323 323 323 323 323 323 323 323
324 323 322 323 322 323 326 327 326 326 328 330 333 333 331 330 330 331 331 331 335 337 332 329 330 333 335 335 332 331 331 332 333 331 331 331 330 329 326 324 322 322 322 322 323 323 321 319 318 317 316 317 317 316 316 316 317 317 319 321 323 324 325 326 327 326 326 326 325 325 324 324 324 324 324 323 323 323 323 323 323 323 323 323 323 323
326 324 323 322 321 322 324 326 326 327 328 329 332 332 330 331 332 332 333 334 335 334 330 330 330 331 331 331 330 330 331 336 336 333 331 331 331 329 327 325 323 322 323 323 324 324 323 323 321 315 314 315 315 315 316 316 316 317 318 320 322 323 324 325 327 327 327 326 325 325 325 325 324 324 324 324 324 324 324 323 323 323 323 323 323 323
327 325 323 323 322 322 322 325 327 327 328 328 330 330 328 331 333 331 331 335 334 330 330 331 329 329 330 325 325 325 326 333 337 336 334 332 332 332 329 326 325 325 325 324 324 324 323 324 320 314 313 314 314 315 316 316 316 316 317 319 321 322 323 325 326 327 327 326 326 326 325 325 324 324 324 324 324 324 324 324 323 323 323 323 323 323
328 328 325 324 323 322 322 323 325 326 327 327 327 327 326 327 329 328 327 331 331 328 329 329 328 330 329 325 327 327 327 329 330 332 332 330 330 331 329 328 328 328 328 326 325 324 324 321 316 313 314 315 315 316 316 316 315 315 316 318 320 321 322 324 325 326 327 327 327 326 326 325 325 325 324 324 324 324 324 324 324 324 323 324 324 324
327 328 326 324 322 321 321 322 322 325 327 327 326 327 327 325 324 325 327 327 329 330 328 327 330 331 326 322 327 328 327 328 326 326 326 326 330 332 330 330 329 328 327 326 325 324 323 318 312 312 314 315 316 316 316 316 315 314 315 317 318 320 321 323 324 326 326 327 327 326 326 326 325 325 325 324 325 324 325 324 324 324 324 324 324 324
326 328 325 324 323 321 320 322 321 323 326 327 327 328 326 324 324 326 326 325 328 330 328 326 328 328 323 321 323 322 323 327 328 327 325 327 332 333 332 331 328 327 327 325 325 324 323 319 312 311 313 314 316 316 316 317 317 316 315 315 317 318 320 322 323 325 325 326 327 326 327 326 326 325 325 325 325 325 325 325 324 324 324 324 324 324
323 329 326 323 325 323 319 321 321 321 324 326 327 326 324 326 328 327 326 326 328 328 326 327 326 324 323 323 323 323 321 322 328 330 327 327 329 329 330 330 328 328 327 325 325 327 328 324 313 309 312 314 315 316 317 318 318 316 315 315 316 317 318 320 322 323 325 325 326 327 327 327 326 326 326 325 325 325 325 325 325 325 324 325 324 324
318 328 327 323 325 324 321 323 324 324 325 325 325 324 324 326 327 327 327 325 326 325 323 324 323 321 321 320 322 326 325 321 323 328 328 327 327 327 327 328 327 326 325 325 326 328 333 329 314 308 311 313 314 316 316 317 316 315 315 315 315 316 317 318 320 322 323 324 326 326 326 327 327 327 326 326 326 325 325 325 325 324 325 325 324 324
315 323 326 324 324 324 323 325 326 327 326 326 326 325 324 325 325 325 325 322 323 324 321 321 321 319 319 316 317 325 330 328 324 325 327 327 326 326 326 327 327 326 326 326 325 325 331 328 313 307 311 314 315 317 316 315 315 314 316 316 315 316 316 317 318 320 322 323 324 326 326 326 327 327 327 326 326 325 325 325 325 325 325 325 325 324
315 318 323 324 323 325 326 326 326 327 326 326 327 327 326 327 327 326 324 322 323 322 321 321 320 318 318 317 316 319 325 329 330 328 326 326 326 324 324 325 326 327 325 324 325 326 329 326 312 308 312 314 314 316 315 315 314 314 315 315 315 316 315 316 317 318 320 322 323 325 325 326 326 327 327 327 326 326 326 326 325 325 325 325 324 324
317 316 319 323 323 325 327 323 320 321 324 326 326 327 327 326 327 327 326 325 323 322 323 322 319 320 323 324 320 317 320 323 327 328 323 323 324 322 322 323 323 326 325 323 326 328 333 331 316 309 312 312 312 313 314 314 314 313 314 314 314 314 314 315 316 317 319 320 322 323 324 325 326 326 327 327 327 327 326 326 326 326 325 325 325 325
317 316 318 321 321 322 322 317 314 315 318 321 322 324 325 325 325 325 326 326 324 324 324 321 321 320 323 329 325 320 320 319 320 324 323 323 322 321 322 322 322 324 323 322 323 324 330 326 311 306 309 309 309 311 312 312 312 312 313 313 312 313 314 315 315 315 316 318 320 321 322 324 324 325 326 326 327 327 327 327 326 326 326 325 326 325
316 317 318 320 319 319 319 315 313 313 313 317 320 322 324 325 324 323 324 325 324 324 324 323 324 320 320 333 332 322 320 318 317 319 322 323 323 322 322 322 322 322 321 321 320 320 324 320 310 309 308 305 307 308 309 310 311 311 312 312 312 313 315 315 314 314 314 315 317 318 319 321 322 323 325 325 326 326 326 327 326 326 326 326 326 325
317 318 318 320 321 320 320 318 316 314 313 316 318 320 322 324 324 324 324 324 324 325 324 324 325 320 320 330 330 324 323 320 318 320 321 322 323 321 321 321 321 320 319 320 319 319 322 319 318 318 310 304 306 308 308 309 309 310 311 311 312 313 314 314 313 313 313 313 314 315 317 319 320 321 323 323 324 325 325 326 326 326 326 326 326 326
317 317 317 320 321 321 322 322 320 318 316 315 316 317 320 322 324 325 325 325 324 325 324 324 324 322 320 322 323 324 325 322 322 323 320 319 319 318 319 319 319 318 318 318 318 318 318 317 317 316 308 304 307 307 307 308 308 309 311 312 312 313 313 313 312 311 311 312 313 314 315 316 317 319 320 321 322 323 324 325 325 326 326 325 326 325
316 316 316 318 319 319 320 319 318 318 318 318 317 317 318 319 321 323 325 326 325 324 324 323 323 323 321 320 320 321 323 325 329 329 324 321 320 318 317 316 316 316 316 316 316 316 317 317 316 314 308 304 306 307 308 309 309 310 313 314 314 314 313 313 312 311 311 311 311 312 313 314 315 316 317 319 320 321 322 323 324 324 325 325 325 325
315 315 315 316 317 317 317 316 316 317 317 318 318 317 317 317 318 319 321 323 323 324 326 323 322 324 322 319 319 319 320 323 327 328 325 323 321 318 316 315 315 315 315 315 315 315 317 319 319 318 312 305 305 308 307 308 310 312 314 314 313 313 313 312 311 310 310 310 310 311 312 313 313 314 315 317 318 319 320 321 322 323 323 324 324 324
314 315 315 315 315 315 315 315 316 316 315 316 316 316 317 316 317 317 318 319 319 321 324 321 320 322 321 319 320 319 318 318 317 318 318 316 315 315 315 316 317 318 317 316 316 315 314 316 317 318 314 307 303 305 305 306 309 310 312 313 313 313 312 311 309 309 310 309 310 311 312 312 312 312 313 315 316 317 318 319 321 321 322 323 323 324
314 314 314 314 315 314 315 315 314 314 315 315 315 315 315 315 316 316 316 317 317 317 318 318 318 319 317 316 316 316 317 318 316 317 317 316 316 316 316 315 315 316 316 317 318 316 314 315 313 313 313 307 301 302 304 306 309 309 310 313 314 314 313 310 308 308 308 308 309 310 310 310 310 310 310 311 313 314 315 317 319 320 321 321 322 323
313 314 313 313 314 314 314 313 313 313 315 315 314 314 314 314 314 315 315 315 315 315 315 316 317 318 318 316 314 313 315 316 316 318 319 319 320 319 319 316 314 313 313 314 315 313 312 314 312 314 316 307 301 302 305 307 309 309 310 313 315 314 313 310 309 308 307 307 308 308 308 308 308 308 308 309 309 310 312 314 316 318 319 320 321 322
311 313 312 313 315 315 314 314 312 313 315 315 314 314 313 314 314 314 313 314 315 316 316 316 317 319 320 318 315 313 313 314 315 317 318 319 320 321 321 319 316 314 313 313 314 314 314 316 316 318 316 305 301 304 307 308 309 310 311 315 315 314 312 311 309 308 307 307 307 306 307 307 307 307 307 307 307 308 309 311 313 316 317 319 320 321
311 312 312 313 315 315 313 313 313 313 315 316 315 314 314 313 314 313 313 313 314 316 317 317 317 319 320 318 316 315 313 312 313 314 316 318 319 319 318 318 317 316 315 315 317 317 316 317 315 313 309 304 304 308 310 310 310 311 313 315 314 312 311 309 308 307 307 306 306 306 307 306 306 306 306 307 306 306 307 308 311 313 315 317 318 319
310 312 312 312 313 313 312 312 313 314 316 315 314 314 313 313 313 314 314 313 314 315 316 317 317 318 318 317 317 317 314 312 313 314 315 316 317 317 317 316 316 316 316 317 319 318 316 316 312 307 305 306 308 310 311 311 310 311 313 313 312 311 309 307 307 306 306 306 307 308 308 306 305 306 306 306 306 306 306 307 309 310 312 315 316 316
309 311 311 310 311 311 310 311 314 315 313 312 313 313 313 312 313 313 313 313 313 314 315 315 316 317 316 314 315 316 314 313 314 315 315 315 315 316 316 315 315 315 315 316 317 318 318 318 312 306 306 309 311 311 311 310 310 311 311 310 310 309 307 306 306 306 306 308 310 310 309 307 306 306 306 306 305 305 306 307 308 309 310 312 313 314
310 310 310 309 310 310 309 310 313 313 309 309 311 311 311 312 313 313 314 314 314 313 314 314 314 314 313 313 313 313 314 316 318 316 316 317 317 316 316 316 315 315 314 314 315 316 315 314 312 309 310 311 311 311 310 310 310 309 308 308 307 306 305 305 305 307 308 309 310 310 309 307 306 306 306 306 305 305 306 306 307 308 309 311 312 313
310 310 310 310 309 309 309 309 310 310 308 308 309 309 309 312 314 314 315 316 315 312 312 313 313 312 312 313 312 312 315 318 318 315 316 320 321 319 316 315 315 316 315 313 312 313 312 312 312 312 311 311 311 311 311 310 309 307 307 308 307 306 305 304 305 307 308 308 310 310 309 308 306 305 306 306 305 305 306 306 307 307 308 309 310 311
309 310 311 309 309 309 309 308 309 310 309 308 307 307 308 313 316 315 314 316 318 315 312 312 313 313 312 313 312 312 314 316 315 314 317 323 326 324 320 318 317 316 312 310 309 310 311 312 311 311 310 310 310 311 311 311 309 308 307 308 308 308 307 305 306 306 306 308 310 310 308 306 305 305 305 305 305 306 306 306 306 306 307 309 309 310
307 309 309 307 308 309 308 308 307 307 308 308 308 309 311 314 317 316 313 313 315 314 313 312 313 312 312 313 313 313 314 316 316 313 314 319 323 322 321 322 321 314 307 306 308 308 309 310 310 309 310 308 308 310 310 309 308 307 306 306 306 306 305 305 306 307 307 309 309 308 307 306 305 304 305 305 306 306 306 305 305 305 307 308 308 309
307 308 308 307 307 308 308 307 306 306 307 310 312 312 312 311 312 314 312 310 311 313 314 313 312 313 312 313 315 315 316 316 314 313 315 319 320 317 316 317 317 313 307 306 307 307 307 307 307 307 307 307 307 309 308 307 306 305 305 305 304 303 304 305 307 308 309 309 308 307 306 305 304 304 304 305 306 306 305 305 305 305 306 307 308 309
307 308 308 307 307 307 307 307 306 306 308 309 310 313 312 310 311 313 310 309 311 315 314 312 312 313 313 314 314 315 314 314 313 315 318 321 319 316 314 310 307 306 304 304 305 306 305 305 305 304 305 306 307 307 307 306 305 304 304 304 302 302 305 307 308 309 309 308 306 306 306 305 304 304 304 305 305 305 304 304 304 304 305 305 307 308
306 308 308 307 307 306 306 306 305 307 309 307 307 310 310 309 310 310 309 311 317 317 314 315 315 313 313 314 314 314 313 313 315 316 317 316 314 315 316 312 307 305 304 303 303 304 303 303 303 303 304 305 305 305 306 305 304 304 304 303 302 305 306 307 307 308 307 306 305 305 305 304 304 304 304 304 304 303 303 304 303 303 304 305 306 308
305 307 307 308 307 305 305 306 305 305 305 305 305 306 306 308 311 311 309 312 317 316 315 318 317 313 311 311 313 313 312 313 315 314 313 313 312 312 313 312 309 306 303 301 301 302 302 301 301 302 303 304 304 304 305 304 303 303 302 302 303 305 306 305 306 306 305 304 304 304 304 304 304 303 303 303 303 302 302 302 302 302 303 304 306 307
304 305 306 307 307 306 305 305 305 305 305 305 305 305 306 309 311 309 307 307 308 309 311 312 313 312 310 309 309 310 309 309 310 310 309 309 308 308 308 308 306 303 300 299 300 301 301 300 300 301 302 303 303 304 304 303 302 301 301 302 304 304 304 304 304 304 303 304 304 304 304 304 303 303 302 302 302 301 300 301 301 302 303 304 305 305
303 303 304 305 307 306 305 305 307 309 308 306 304 304 306 307 306 306 306 306 305 305 307 307 308 310 309 306 306 306 305 304 305 305 306 305 304 304 305 304 303 301 300 299 300 301 301 300 300 300 300 301 302 302 303 303 301 300 300 302 303 303 303 303 303 302 303 303 303 303 304 303 302 302 301 301 301 300 299 299 300 300 301 302 303 304
300 300 302 304 304 303 303 304 305 306 306 304 302 303 305 305 304 304 305 305 303 303 304 303 304 305 305 303 303 303 303 302 303 303 303 303 303 303 303 302 301 299 299 299 300 300 301 300 300 299 299 300 301 301 302 302 301 300 301 303 303 303 302 302 302 301 302 302 302 302 302 301 301 301 300 300 299 299 299 299 299 299 300 300 301 302
299 299 300 302 302 301 302 304 303 302 302 301 300 300 301 301 302 301 302 303 303 301 301 301 301 304 305 303 302 303 302 302 302 302 302 303 303 303 303 303 302 299 298 299 300 300 300 299 299 298 298 299 300 300 301 301 301 301 301 302 303 303 303 301 301 300 301 301 301 301 300 300 300 300 299 298 298 298 298 298 298 298 298 299 300 300
300 299 299 301 300 299 300 301 300 299 299 298 297 297 297 297 299 299 301 304 303 300 298 298 299 302 303 301 300 301 301 301 301 302 301 302 302 301 301 302 301 299 299 299 299 300 299 298 298 298 298 299 299 300 300 300 300 301 301 301 302 303 303 301 301 300 300 300 300 300 300 300 300 299 298 298 297 297 297 297 298 298 298 299 299 299
299 299 301 301 300 300 300 300 299 298 298 297 297 297 297 297 298 299 300 301 301 300 298 296 297 298 300 299 298 299 299 299 299 301 301 300 299 299 299 299 298 298 298 299 299 299 299 298 298 298 298 298 299 299 298 299 299 300 300 300 301 302 301 301 301 300 299 299 299 299 299 299 299 299 298 297 297 296 297 297 298 298 298 299 299 299
297 298 299 299 299 299 299 298 298 298 298 297 297 298 300 299 298 298 299 299 298 298 297 296 296 296 297 297 297 297 298 297 297 298 299 298 297 297 297 297 296 296 297 298 298 298 298 298 298 297 297 297 298 298 298 298 299 299 300 300 300 301 300 300 300 298 298 298 298 298 298 298 298 298 297 297 296 296 296 297 297 298 298 298 299 299
296 297 298 297 297 297 296 295 296 296 296 296 296 296 297 297 297 297 298 297 296 296 296 295 295 295 295 295 295 295 296 296 295 295 295 295 295 295 295 295 295 295 295 296 296 297 297 297 297 296 297 297 297 297 298 299 299 300 299 300 300 300 300 299 298 297 297 298 298 298 298 297 297 297 296 296 296 296 296 296 296 297 298 298 298 298
Wind_Speed
5 5 6 11 15 16 16 15 13 6 2 4 7 7 9 9 7 6 5 4 6 7 7 10 11 14 16 11 9 9 7 7 8 9 9 9 9 9 9 10 11 12 13 13 17 23 26 29 31 31 32 33 33 33 33 33 35 37 37 36 38 39 38 38 37 37 37 37 37 36 38 41 42 40 39 40 41 40 40 40 40 41 41 41 40 40
5 8 12 18 17 14 15 15 13 12 5 2 3 6 8 9 7 6 7 4 5 5 5 6 9 13 16 12 10 9 9 10 12 12 13 14 14 11 11 15 14 12 11 10 13 19 23 27 29 29 30 31 32 33 34 36 38 38 37 39 41 39 37 39 40 39 39 40 40 40 42 43 40 38 39 40 41 40 40 40 41 42 42 41 41 41
5 11 20 18 12 9 12 13 12 13 9 2 1 3 4 5 3 3 4 3 4 4 4 6 7 11 15 13 11 11 10 11 13 14 15 16 16 14 13 15 14 13 13 11 12 15 20 26 27 27 30 32 34 35 36 37 37 37 38 40 41 38 38 40 41 41 42 42 42 41 41 39 37 36 38 40 39 39 39 41 42 43 43 42 42 42
8 14 17 10 9 13 12 10 10 8 7 7 5 4 3 3 3 3 3 3 4 3 2 5 7 8 11 11 10 11 11 12 13 14 15 15 14 16 16 14 14 15 16 13 12 13 17 21 23 26 30 32 33 33 34 35 36 37 39 41 40 39 40 41 42 43 44 42 40 39 38 35 33 33 34 35 36 37 39 41 43 44 44 43 43 43
13 9 7 10 12 15 10 7 10 8 8 11 10 9 5 3 4 3 1 2 1 2 1 3 8 8 9 13 12 9 10 13 14 13 13 14 14 16 16 15 15 15 15 15 14 13 12 16 22 27 31 30 31 33 35 36 38 39 41 42 42 42 42 42 43 44 42 39 37 35 33 30 28 29 29 30 34 37 39 42 44 44 43 43 43 43
15 6 11 15 12 10 10 9 13 12 9 10 13 13 8 5 4 3 3 1 2 3 2 2 7 7 5 12 13 7 8 11 12 12 14 15 14 14 15 15 16 16 15 14 15 14 12 15 21 25 28 28 30 35 37 38 39 41 42 41 41 42 42 42 42 42 40 39 37 35 33 31 29 29 32 35 38 39 41 43 43 41 41 42 43 43
9 8 11 13 9 12 13 11 14 14 9 9 9 12 10 6 4 4 5 3 0 5 3 2 6 7 4 10 11 6 7 10 10 11 13 14 13 13 14 15 15 15 14 13 14 14 14 16 17 20 26 29 33 37 37 37 39 40 40 39 40 41 41 41 41 40 40 40 39 38 38 38 36 34 37 41 42 40 40 41 39 38 39 40 41 43
10 12 11 12 12 13 13 12 15 16 11 6 6 13 13 7 5 4 5 3 1 3 4 2 3 6 11 12 11 10 10 10 11 13 13 13 13 14 15 16 15 14 14 13 14 15 15 16 18 21 26 30 35 36 34 35 38 39 39 39 39 40 40 41 40 40 41 42 41 41 41 41 40 40 41 41 39 39 38 37 37 37 38 39 40 42
14 17 16 17 15 12 12 11 11 14 10 5 6 13 13 9 5 3 4 2 1 3 5 5 2 6 13 7 6 10 13 14 14 15 16 14 13 14 15 16 14 15 15 14 15 16 15 16 21 26 28 30 33 32 31 35 37 37 38 38 38 38 39 40 40 40 42 43 43 43 42 41 41 43 42 37 35 36 35 36 37 36 37 38 39 41
10 16 18 17 13 9 7 6 11 15 11 4 6 8 8 8 6 3 3 2 1 1 9 10 5 5 13 4 6 7 10 14 12 12 15 13 12 13 13 15 15 14 14 14 16 16 15 19 24 26 27 29 31 30 31 34 35 35 35 36 37 39 39 40 40 41 42 43 43 42 42 42 42 41 39 35 34 34 34 36 37 36 37 38 39 41
4 8 11 11 10 7 8 8 12 16 10 7 6 6 5 3 3 2 2 2 0 4 14 18 11 8 12 5 6 6 5 7 7 7 10 10 11 12 12 14 15 14 13 13 13 13 14 20 23 22 23 28 29 28 29 31 33 34 34 34 37 39 39 39 39 41 42 43 44 44 43 44 44 41 37 35 35 34 34 36 38 37 38 38 39 40
3 6 6 6 8 8 9 6 5 9 12 9 6 6 4 1 2 2 1 3 5 9 15 17 11 10 13 8 4 2 2 3 6 8 9 10 12 12 11 12 13 13 13 11 9 9 10 14 16 18 22 26 25 24 27 30 31 32 33 34 35 37 38 38 39 41 42 42 44 45 45 45 45 42 38 37 38 37 37 38 38 36 36 36 37 38
6 6 7 8 9 12 12 5 2 5 10 8 6 8 7 3 3 5 5 5 8 11 7 3 6 10 15 13 5 6 5 3 5 7 8 11 11 12 11 11 11 10 10 9 8 8 8 9 10 13 18 21 20 22 26 28 30 31 33 33 34 36 37 38 39 40 41 42 44 45 45 46 45 42 40 40 40 39 39 39 37 35 35 36 37 38
6 6 8 8 8 12 15 10 6 8 10 11 10 10 9 6 6 8 8 5 7 11 4 6 3 5 10 12 9 13 14 10 9 8 9 10 11 11 10 8 7 7 8 8 8 8 9 9 9 10 14 17 19 23 26 28 29 31 32 32 34 36 37 37 39 40 41 42 44 45 45 45 43 41 41 41 41 41 40 39 38 38 38 37 38 39
10 8 9 12 9 13 17 14 12 10 10 12 9 8 9 7 7 8 7 7 7 8 2 4 2 4 6 5 3 6 8 6 9 8 6 7 8 8 8 6 6 7 8 8 8 10 11 9 8 10 15 18 21 24 26 27 28 29 31 32 34 36 37 36 38 40 41 42 44 44 44 44 42 41 42 42 43 42 40 39 38 39 39 39 40 40
12 7 10 15 12 17 19 13 11 10 7 7 5 7 10 9 8 4 3 6 5 3 3 4 4 4 7 8 3 3 4 3 3 4 3 6 7 7 8 8 8 8 8 8 9 11 11 8 8 12 16 19 21 24 25 26 27 28 31 33 34 37 37 36 37 39 40 41 41 42 43 43 42 42 41 42 42 42 41 40 40 40 40 40 41 40
8 5 10 15 11 18 21 15 15 13 8 6 7 9 9 7 6 2 2 2 3 3 5 5 6 6 8 14 13 13 12 6 4 4 5 8 9 9 9 9 9 8 9 10 9 10 9 7 9 14 18 20 22 23 25 27 28 29 31 31 32 35 35 34 35 37 38 39 39 40 42 42 42 42 43 43 43 43 42 41 41 40 40 40 40 39
3 2 7 14 13 17 18 15 15 13 9 8 10 10 4 2 2 2 3 1 2 5 5 6 12 10 7 11 6 6 14 14 10 8 9 9 10 10 10 10 11 11 12 11 8 7 8 7 10 15 18 21 23 24 25 27 27 26 28 29 31 33 34 35 35 36 37 37 38 40 41 42 42 44 45 45 44 42 40 40 40 40 40 40 39 38
0 1 2 11 14 12 11 12 11 10 7 5 7 10 7 3 5 5 4 4 4 6 6 9 14 11 10 12 6 2 8 11 11 10 8 8 9 8 9 12 14 13 12 11 9 7 7 7 9 13 17 20 22 23 25 26 24 23 25 27 29 31 33 34 33 34 35 36 38 39 40 42 43 44 44 44 43 41 39 40 41 41 41 41 39 38
1 1 1 5 8 9 9 9 9 9 6 2 2 8 6 5 7 8 8 7 7 8 8 10 12 8 10 14 12 6 6 7 9 8 8 10 11 10 11 12 14 14 13 12 10 9 7 7 9 13 16 19 20 21 23 23 22 22 23 25 27 30 31 32 31 32 34 36 37 38 39 39 40 41 42 42 41 39 39 41 41 41 41 40 38 37
1 1 1 2 2 8 8 8 11 14 12 6 5 9 9 5 2 4 7 6 6 8 8 9 11 9 7 8 9 9 9 10 11 11 12 13 13 14 14 14 14 14 14 11 6 6 7 6 10 14 17 18 20 21 22 22 22 22 22 24 26 28 29 31 32 33 33 34 35 35 36 36 37 38 39 40 39 39 41 42 42 41 40 38 38 37
2 2 2 0 1 5 5 3 4 7 9 9 9 10 12 11 6 6 8 8 6 6 6 7 12 11 5 4 7 10 10 11 12 13 13 13 15 15 13 13 13 13 13 9 4 5 6 6 9 14 16 17 19 22 23 23 22 22 23 24 25 26 28 30 31 31 31 31 31 33 35 36 37 37 37 38 39 40 41 42 42 41 39 37 38 38
2 2 2 2 2 4 3 3 4 2 1 2 5 6 9 10 9 9 10 8 8 8 6 6 12 11 4 3 5 6 7 8 10 11 9 10 12 12 11 10 10 11 13 11 6 5 6 6 9 12 14 16 19 22 23 22 22 23 24 24 23 24 27 29 29 29 28 28 30 32 34 35 36 36 36 37 38 40 42 42 42 40 38 38 39 39
2 2 2 2 1 3 4 4 5 3 3 2 4 4 7 9 10 10 7 4 6 9 8 6 11 11 6 3 3 3 3 2 4 6 7 8 8 9 11 10 9 11 12 12 10 7 5 6 8 9 10 14 17 20 21 21 21 22 23 22 21 24 27 27 27 26 26 27 29 31 32 33 35 35 35 37 39 40 41 41 41 40 39 39 40 40
4 3 3 3 1 2 2 1 1 1 2 1 2 4 6 8 10 10 5 2 4 9 11 10 10 10 7 2 3 5 4 3 3 4 6 7 7 9 9 8 9 9 10 11 11 8 6 6 7 7 9 12 16 18 18 18 19 20 20 20 20 23 25 25 25 25 26 27 29 30 31 33 34 35 36 38 39 41 41 41 40 40 39 39 39 40
5 3 5 6 5 5 5 3 2 2 3 1 2 4 5 7 9 9 6 7 8 9 11 10 9 9 9 3 2 5 6 4 5 6 4 6 7 8 7 8 9 8 9 11 10 9 8 7 7 7 9 13 16 18 17 17 17 17 17 17 18 19 21 22 23 23 25 26 27 29 31 33 34 36 37 39 40 40 40 40 39 39 39 39 39 39
2 2 5 7 8 9 6 2 3 3 3 2 3 5 4 4 6 6 5 6 7 7 10 11 9 10 15 16 10 3 4 3 5 6 5 6 7 8 8 8 8 7 8 9 8 8 8 8 8 8 9 14 18 19 18 17 16 14 14 15 17 18 20 21 21 22 24 25 26 28 31 33 35 36 37 38 39 39 39 39 39 38 39 39 38 38
3 2 6 8 11 13 10 5 5 5 4 5 6 7 8 6 5 7 8 5 4 5 10 9 7 10 17 21 15 3 4 5 6 6 6 6 7 7 7 8 8 9 10 9 9 9 8 9 11 10 9 13 17 18 16 15 13 12 13 16 17 19 21 21 21 22 23 24 26 28 31 33 34 34 35 36 35 36 37 37 38 38 38 37 37 38
3 3 5 7 12 14 9 5 7 7 6 7 10 12 13 11 11 12 13 9 4 5 5 4 7 9 12 15 11 4 5 6 7 7 8 7 7 7 8 9 10 11 11 10 10 10 8 9 10 10 9 10 13 13 11 11 12 12 13 16 19 21 22 21 21 22 23 24 27 30 32 32 32 32 33 33 33 34 36 37 37 37 36 36 37 39
2 3 5 7 11 12 6 5 7 7 5 6 9 11 11 12 13 14 14 11 10 9 4 3 10 11 9 13 12 4 2 5 6 6 8 9 9 9 9 10 10 11 11 11 10 9 8 8 9 9 8 10 12 11 10 12 14 14 14 16 20 23 23 20 20 21 22 25 29 31 30 30 31 31 31 31 33 34 35 36 36 35 35 36 37 38
1 3 5 6 7 9 7 7 7 8 8 7 7 8 8 8 9 11 10 7 6 7 5 5 7 10 9 11 13 7 3 4 4 4 6 9 9 10 10 11 11 12 12 12 11 8 7 7 8 7 7 9 12 13 13 15 17 17 17 20 23 23 22 21 22 23 24 26 28 29 28 28 30 30 31 32 33 33 34 34 33 33 34 35 37 38
2 2 2 4 4 5 7 10 9 8 9 10 9 9 10 8 7 7 7 7 7 7 5 4 4 7 7 9 15 15 9 5 6 6 6 8 9 9 10 11 11 11 10 11 12 11 10 9 9 8 8 10 12 14 15 17 18 19 21 25 26 23 22 23 24 25 26 26 27 26 25 26 28 29 31 32 32 32 32 31 31 32 33 35 36 36
4 3 1 3 4 2 4 9 9 7 6 8 9 12 14 10 5 4 4 7 9 7 6 5 6 6 6 7 13 18 15 9 9 7 6 7 8 7 9 11 11 10 9 9 10 10 11 10 9 9 10 12 15 19 21 20 19 22 26 27 26 24 23 25 25 24 25 25 25 24 24 25 26 28 30 31 31 30 29 28 30 32 33 35 35 35
5 4 1 2 2 1 2 5 6 5 5 3 2 7 13 13 10 9 8 9 9 7 5 4 5 6 8 9 12 16 16 11 8 6 5 6 5 6 9 11 11 11 10 10 10 10 10 9 9 11 14 17 21 24 25 23 22 25 27 26 26 25 24 24 23 22 24 24 23 24 25 26 27 29 29 29 28 27 27 28 30 32 33 34 33 33
6 4 2 1 2 2 1 3 3 5 3 1 4 3 6 10 13 13 10 7 8 9 7 6 8 11 12 12 13 15 12 8 7 7 7 6 6 7 10 12 13 12 11 12 11 10 9 8 8 12 16 21 24 24 24 24 24 26 26 25 26 26 25 23 21 22 23 23 24 26 26 27 28 28 28 27 26 26 27 29 31 32 33 32 32 33
6 4 2 2 2 1 1 1 4 3 2 2 6 5 1 3 6 7 4 5 9 11 10 11 14 14 13 14 15 12 7 6 6 7 7 7 9 10 10 11 12 12 12 11 10 9 11 12 13 17 22 24 24 22 22 23 21 21 24 25 24 24 21 19 20 22 23 25 27 28 29 29 29 28 27 26 25 27 29 30 31 32 31 30 31 32
6 4 2 1 2 2 1 1 3 3 3 2 6 4 3 3 6 6 3 5 7 11 13 14 15 14 13 14 14 9 6 7 8 7 6 9 11 11 10 11 11 11 11 11 12 14 17 21 23 25 27 30 31 31 31 29 24 21 25 29 27 24 20 18 21 24 25 26 29 31 32 31 29 28 27 25 25 29 32 32 31 30 28 28 29 30
5 4 3 3 2 2 2 1 1 1 3 6 5 4 4 5 6 7 4 3 6 11 15 14 15 15 15 14 13 8 4 6 10 7 3 7 9 8 8 8 8 8 9 12 14 17 21 24 25 27 29 30 33 39 40 37 34 31 31 34 35 34 32 29 29 29 27 29 33 34 32 30 28 27 27 26 28 31 33 31 30 28 27 27 28 29
2 2 3 4 3 2 3 3 3 3 4 7 6 4 4 7 7 6 3 4 7 10 13 13 15 15 14 12 10 6 3 6 10 5 2 6 6 4 4 6 6 6 10 13 14 15 19 23 24 26 29 28 29 36 38 34 31 29 29 31 31 29 29 31 34 33 32 35 36 34 31 29 28 28 27 28 30 32 32 30 28 27 26 27 27 27
3 1 3 4 4 4 4 3 3 3 5 7 6 4 5 5 7 7 3 6 5 7 11 14 15 13 12 11 8 6 6 8 10 6 4 6 6 2 4 6 6 6 9 14 17 16 18 21 21 22 25 26 29 35 35 31 27 25 27 28 26 23 27 33 36 36 36 38 36 33 32 30 28 29 29 30 32 32 30 29 27 26 26 26 26 25
3 2 4 5 5 5 6 5 3 2 6 8 6 5 5 5 6 5 7 5 3 4 6 9 11 11 11 9 6 5 7 9 8 6 6 6 8 7 6 7 9 9 12 16 19 19 19 20 20 20 23 27 30 32 33 29 25 25 28 26 22 25 32 37 37 37 37 36 33 32 31 30 29 30 31 31 31 30 29 28 27 26 26 25 24 24
4 3 3 5 6 5 4 3 3 4 6 6 4 3 4 4 4 5 5 3 3 4 4 6 9 9 8 7 6 6 7 7 6 7 7 7 8 9 8 8 10 12 15 17 18 18 17 19 20 20 23 27 28 29 31 28 24 26 28 24 25 33 39 38 37 38 36 33 31 31 30 30 30 31 31 30 29 28 28 27 26 25 26 25 24 24
5 4 2 5 6 4 3 4 4 5 5 3 5 3 2 5 6 5 3 4 5 5 5 4 5 4 3 3 5 6 6 7 7 7 7 8 8 8 9 8 8 10 13 14 17 18 16 17 19 21 24 27 26 27 29 25 24 26 25 24 32 39 39 36 36 35 33 32 31 31 30 30 30 30 29 28 27 27 27 26 25 25 26 26 25 25
3 4 3 4 5 4 5 5 5 4 3 4 5 4 5 7 6 2 1 4 5 2 3 3 5 5 4 4 6 6 5 6 8 7 8 9 9 8 8 8 8 9 11 14 18 20 18 16 19 21 24 26 25 26 28 24 23 25 25 29 37 39 36 35 34 31 31 32 31 31 31 30 29 28 28 27 26 25 26 25 25 25 26 27 26 25
3 3 3 3 4 4 5 5 4 4 4 4 4 4 5 7 7 4 2 5 6 2 2 0 4 7 7 6 7 7 6 6 7 7 8 9 9 9 9 9 9 10 13 16 20 22 19 18 20 21 23 26 24 23 26 26 22 22 27 35 39 37 34 33 30 28 29 32 32 31 30 28 27 26 26 25 25 25 25 25 24 25 26 26 26 24
2 0 3 2 2 2 2 4 5 6 9 8 5 4 5 7 7 6 6 6 6 4 4 4 5 7 7 7 6 6 7 7 8 8 8 8 10 10 9 10 11 12 14 16 20 22 21 20 21 19 20 25 26 22 25 28 24 23 30 38 41 37 34 31 29 28 30 31 32 32 28 26 25 25 24 24 25 26 26 25 25 25 24 24 24 23
3 1 2 1 1 1 2 6 6 6 10 10 5 3 5 6 5 4 4 6 7 6 4 4 5 7 6 5 6 6 8 8 8 9 8 7 9 10 9 9 11 12 15 17 19 22 21 19 18 16 16 23 28 26 27 31 30 29 32 36 38 38 34 31 29 30 31 31 32 30 26 25 25 24 23 24 24 26 26 27 27 25 24 24 24 23
2 1 2 3 3 3 4 8 9 8 11 11 8 6 6 7 7 5 4 5 7 8 5 2 2 5 5 5 4 5 8 9 7 8 9 7 8 9 9 9 11 13 18 22 23 22 20 18 18 18 17 22 29 31 31 33 35 36 36 36 36 35 33 32 31 31 31 32 31 29 27 26 25 24 24 24 25 26 27 28 28 29 29 30 29 26
1 1 2 3 2 2 5 8 8 9 12 14 13 9 4 4 6 6 5 5 7 10 10 7 4 4 6 8 6 6 9 10 8 7 9 9 10 11 10 10 12 15 18 22 24 24 21 19 21 23 23 26 30 32 33 35 37 37 36 36 35 32 30 33 34 32 31 31 29 28 27 26 25 25 24 24 24 26 28 29 30 32 33 34 33 31
2 3 3 2 1 4 6 6 4 4 9 13 12 5 1 3 4 6 7 8 9 11 12 13 12 10 9 10 8 6 9 12 10 8 10 11 12 13 14 13 13 16 19 21 23 24 24 24 25 26 28 33 34 31 31 35 38 38 35 35 34 31 30 32 32 31 31 30 28 28 27 25 25 25 24 24 23 23 25 28 30 31 32 32 33 33
5 6 5 4 5 8 10 10 7 5 8 13 13 8 5 4 5 7 10 11 11 11 11 13 16 17 15 13 10 7 9 13 14 11 11 12 14 15 17 17 15 16 21 23 21 21 24 28 30 28 30 35 36 31 28 33 38 38 35 33 33 32 31 31 29 28 30 29 28 28 26 24 24 24 23 24 23 22 21 22 25 29 32 31 30 30
Wind_Direction
165 178 194 205 206 204 201 206 213 204 113 165 174 189 207 218 233 216 231 249 185 199 236 224 232 248 251 246 236 240 229 227 248 257 260 258 256 255 251 253 251 247 252 254 247 243 241 241 241 239 238 237 236 235 234 233 233 232 231 229 231 231 227 223 222 221 219 219 219 220 223 228 230 231 232 234 235 236 237 238 240 242 243 243 243 243
178 201 215 214 207 201 202 205 212 216 216 83 160 203 213 218 231 216 220 232 179 202 248 229 235 250 253 250 240 232 225 234 239 240 250 252 252 254 253 256 257 256 259 256 250 245 241 241 240 237 236 234 233 233 231 231 233 233 230 230 231 229 225 223 222 220 220 220 220 220 224 227 228 229 230 233 234 235 236 238 240 242 243 243 243 243
189 218 221 212 199 200 207 204 206 217 222 237 230 220 223 213 219 233 223 195 171 201 246 241 239 250 255 250 239 233 226 232 233 229 237 244 249 251 250 253 256 260 261 254 250 247 240 239 238 235 234 232 233 233 232 231 232 231 230 230 231 228 225 225 223 221 222 224 224 224 227 228 228 230 233 235 237 237 238 239 240 241 242 242 242 242
196 225 218 187 180 204 206 193 192 207 223 228 223 221 231 171 166 231 226 181 191 205 231 257 258 256 262 262 245 230 226 234 236 229 233 238 244 248 247 249 251 252 256 255 251 247 241 238 235 232 232 231 231 231 230 230 229 229 230 230 229 227 227 227 225 224 225 225 226 227 229 231 232 234 236 238 239 239 240 240 241 241 240 240 240 241
212 220 166 163 192 200 192 173 180 193 217 223 219 219 217 154 183 220 190 181 226 260 257 287 284 267 248 256 254 231 219 233 237 231 236 240 240 248 250 248 248 246 250 252 249 247 240 234 232 232 233 231 229 229 229 228 228 229 231 230 229 228 228 227 226 226 224 222 223 224 225 229 232 235 235 235 237 236 237 239 240 239 238 238 239 239
222 187 144 185 194 171 179 186 188 194 211 224 219 214 202 160 184 179 139 99 12 287 257 145 270 272 230 241 250 233 213 228 239 233 235 241 239 244 250 248 247 246 245 248 249 250 243 236 235 233 232 229 228 231 231 231 232 232 232 230 228 228 227 227 227 226 222 219 219 217 216 218 221 225 226 228 231 232 233 236 237 237 237 237 237 238
216 176 162 188 170 162 190 202 196 191 204 231 209 193 198 178 150 139 126 99 5 273 284 170 246 275 267 249 246 237 226 223 235 237 232 238 239 238 245 246 247 248 246 246 248 249 246 240 236 234 231 226 229 234 234 232 234 233 232 230 228 227 227 227 226 224 220 218 217 216 217 218 218 221 226 229 231 233 234 236 236 236 237 237 237 237
182 177 174 175 169 180 196 205 198 186 200 235 155 164 194 192 138 116 103 103 239 293 295 220 225 276 271 261 244 235 241 232 230 240 235 232 234 235 241 244 244 247 246 246 246 244 244 241 237 237 235 231 234 237 234 232 234 233 231 230 229 227 227 226 225 223 220 218 217 217 219 222 222 225 230 232 232 234 235 236 237 237 237 237 237 237
177 182 184 177 182 195 199 201 180 173 201 227 145 162 185 188 163 114 95 105 8 355 277 243 116 275 268 254 213 220 238 238 229 235 240 234 232 232 239 245 245 245 243 241 244 243 241 240 238 239 240 240 240 238 235 235 237 235 233 231 228 227 227 226 225 223 221 220 219 219 219 222 225 229 232 233 234 234 234 235 237 237 237 237 238 238
183 191 187 180 190 196 179 158 152 174 201 184 138 141 151 175 178 152 134 143 16 335 255 243 160 243 270 233 166 204 232 239 229 230 240 237 234 232 234 243 243 244 245 241 242 244 242 241 241 242 243 245 244 240 239 239 238 236 233 230 228 227 227 226 224 222 222 221 220 220 220 223 226 229 231 232 233 234 234 234 236 235 236 236 237 238
170 180 176 178 194 177 145 151 169 180 174 122 106 93 99 141 138 109 123 136 258 256 249 242 194 206 269 246 173 199 214 215 204 220 243 240 239 236 228 236 240 241 244 242 243 247 247 247 248 247 245 245 245 241 239 239 237 235 233 230 229 229 228 225 223 223 223 222 220 221 222 224 227 228 228 228 230 231 231 233 234 234 235 235 235 237
165 151 153 178 179 141 132 159 174 163 153 136 118 115 117 60 79 99 95 148 209 239 249 247 209 202 253 246 171 221 250 184 193 208 228 233 239 241 232 233 238 240 245 247 248 250 252 252 249 242 241 244 242 237 235 236 236 235 233 231 230 230 228 225 224 223 223 222 221 223 224 226 228 228 227 227 229 229 229 231 233 232 233 234 234 235
200 179 164 167 159 146 147 141 82 141 163 160 140 149 166 183 180 190 201 188 212 238 248 227 180 209 247 255 252 261 256 227 214 211 221 231 238 245 242 237 238 243 252 254 251 251 249 249 246 237 238 242 238 234 235 235 235 234 233 231 230 231 229 226 224 224 223 222 222 224 225 227 229 228 228 229 231 231 231 232 232 231 231 232 232 232
202 208 176 157 151 163 167 162 164 172 178 178 165 171 184 183 196 207 212 205 220 242 253 79 126 232 265 272 254 241 240 227 216 213 218 227 233 243 249 251 256 261 261 258 252 251 248 244 242 237 239 241 237 237 238 237 236 234 233 231 230 233 232 227 225 225 224 224 225 226 227 228 229 229 229 230 232 233 233 233 233 233 232 232 233 233
193 214 182 170 166 170 179 184 179 165 175 187 173 176 187 184 204 209 206 211 223 245 236 108 169 211 230 254 166 198 248 242 218 220 228 239 245 258 275 283 277 268 258 256 252 249 249 245 237 234 238 239 238 240 240 239 237 233 233 231 230 233 233 228 226 225 224 225 226 227 228 229 229 229 231 232 234 234 234 235 235 235 235 235 236 237
203 223 177 176 172 167 181 190 165 142 166 192 158 177 203 201 203 207 199 201 199 240 217 187 227 223 236 269 245 204 306 344 230 237 269 274 269 268 278 275 264 259 253 251 249 251 253 246 233 232 237 239 241 242 241 240 238 234 234 233 231 234 234 230 228 226 226 227 227 227 228 229 230 230 231 233 235 235 235 236 236 237 237 238 239 239
208 226 172 171 171 176 184 180 166 165 168 176 179 194 210 202 181 188 262 187 122 222 226 204 244 266 281 281 266 242 248 246 216 214 213 233 243 244 256 261 259 259 254 250 248 253 255 244 233 232 234 238 240 242 242 243 242 239 237 235 233 235 235 232 231 229 228 227 227 229 229 230 230 230 232 234 235 236 236 237 237 238 239 239 240 240
191 233 176 169 179 190 185 170 176 186 163 160 194 190 156 76 133 154 248 231 115 229 230 205 228 238 245 265 275 223 229 224 209 206 207 218 231 238 249 257 257 255 256 259 261 259 252 239 233 233 235 238 241 244 246 248 248 243 241 239 236 237 237 236 234 232 230 228 228 230 230 231 231 232 234 235 236 237 236 237 237 238 239 240 240 240
209 347 198 186 188 182 166 163 184 205 189 172 191 175 144 158 189 181 209 221 208 232 246 227 231 231 223 244 268 179 216 218 207 204 205 216 227 234 245 254 258 259 261 264 259 249 243 236 234 236 240 244 246 248 250 252 251 248 247 245 242 242 243 242 238 234 233 231 230 231 232 233 233 234 235 236 237 237 236 237 238 238 239 240 240 239
341 123 263 225 191 155 154 176 183 196 217 314 146 171 176 192 199 195 201 213 213 224 245 245 242 232 224 242 250 231 211 202 197 199 205 214 218 219 224 236 249 255 254 250 242 237 238 240 245 243 245 252 254 256 258 257 254 252 252 249 245 246 246 244 241 238 236 234 232 232 233 234 234 235 235 237 237 237 237 238 239 239 240 240 239 239
30 209 242 315 184 161 171 190 188 190 196 197 179 180 187 194 215 214 206 212 221 224 234 248 252 241 226 238 234 219 211 196 186 192 204 211 214 216 217 220 231 242 249 253 246 240 243 248 255 253 252 257 260 261 261 259 257 255 253 251 249 248 246 245 243 239 237 235 233 232 234 235 236 236 237 238 238 238 239 240 240 240 241 240 240 239
156 192 188 224 197 189 183 148 175 200 191 191 199 189 189 191 183 200 212 209 218 224 209 232 254 253 236 218 205 203 207 199 192 197 203 209 216 221 221 222 230 243 257 267 249 225 236 241 251 256 257 257 259 258 257 256 257 256 255 255 252 250 248 247 245 241 239 238 235 235 237 238 238 238 238 238 238 239 240 241 241 241 240 239 240 240
120 114 177 224 209 233 254 73 70 15 49 223 237 208 202 202 188 199 212 199 202 218 210 231 254 258 254 219 211 215 219 208 202 201 202 213 223 230 234 236 243 254 264 270 258 231 232 238 249 257 260 258 255 255 256 257 257 258 259 258 254 252 252 251 249 246 243 241 240 241 242 241 240 239 239 238 239 240 241 241 241 240 239 239 240 240
85 115 182 242 270 286 303 39 53 32 29 312 268 228 218 213 206 216 220 191 204 213 209 231 250 257 262 226 215 267 276 227 211 205 207 220 232 238 241 242 244 250 259 268 267 255 242 249 257 259 260 259 255 255 258 260 260 259 259 258 255 255 257 255 253 251 248 246 246 246 245 244 243 241 239 239 240 241 242 242 241 240 239 239 239 239
183 161 170 204 253 294 284 327 359 44 119 202 244 247 244 225 221 230 230 238 237 212 207 220 237 253 257 169 73 356 351 355 304 249 223 226 236 242 246 248 249 252 260 268 273 277 271 262 259 256 255 257 258 260 261 262 262 259 258 259 258 258 260 260 258 256 253 251 250 249 247 246 246 243 241 241 241 243 244 243 242 241 239 238 238 238
183 168 169 188 211 223 221 226 238 179 141 166 226 248 260 243 231 233 226 229 230 211 211 224 234 256 266 260 20 5 7 350 314 300 279 255 253 259 262 259 260 262 264 268 274 282 280 271 261 260 266 267 265 263 263 262 259 258 262 266 265 266 269 269 265 260 256 252 249 249 249 248 247 245 244 244 244 244 245 244 242 241 239 238 237 237
153 193 191 197 214 225 220 145 101 109 120 149 190 200 220 252 264 269 250 233 236 226 224 227 228 249 264 262 257 297 9 329 293 295 291 273 266 266 264 266 276 278 273 275 280 284 291 292 280 266 260 262 264 263 262 261 259 262 271 277 278 279 280 277 271 264 258 253 249 249 250 251 250 249 249 248 248 247 246 245 244 242 241 240 237 236
95 219 212 211 228 238 237 200 153 156 183 201 210 217 223 229 245 259 255 262 316 274 237 235 236 237 250 258 258 281 8 335 307 302 296 286 281 280 285 295 296 288 282 279 277 275 273 276 278 272 259 256 259 260 259 259 263 268 274 281 285 284 282 278 271 265 262 256 251 251 254 255 254 252 252 252 251 250 249 247 246 244 242 240 238 236
125 214 207 205 233 246 244 199 175 184 204 215 221 229 231 221 211 225 240 244 249 245 243 305 301 264 257 273 288 359 19 336 319 310 306 312 316 319 320 308 290 281 279 276 274 273 263 259 266 268 268 271 271 268 267 270 275 275 276 285 291 289 286 280 271 267 265 258 255 257 259 259 257 255 255 254 253 252 251 249 248 246 243 241 239 239
154 214 193 190 230 244 226 171 175 182 189 204 214 217 218 213 207 213 227 225 216 223 221 275 291 288 280 282 293 334 357 310 316 326 323 322 322 320 315 303 290 283 279 274 269 267 266 268 272 280 298 299 290 288 295 296 290 285 286 292 293 290 287 282 276 273 268 262 261 262 262 261 260 259 257 255 254 254 253 251 249 247 244 242 241 240
215 207 180 171 223 241 214 188 182 178 191 212 212 200 194 198 201 209 217 207 202 225 207 187 262 283 279 282 293 294 275 293 320 333 314 303 303 305 305 304 300 300 302 300 295 289 284 278 279 289 290 277 280 291 297 295 293 289 290 292 291 288 286 284 282 278 271 267 268 266 264 263 263 261 259 258 257 256 254 252 250 248 245 244 242 240
202 198 149 158 213 237 202 194 193 186 206 223 215 197 193 192 192 199 200 188 189 199 181 169 236 263 270 297 303 297 290 298 294 274 263 275 284 291 296 298 297 300 305 307 308 309 303 292 282 273 264 269 288 297 293 290 289 287 286 287 288 289 287 282 279 275 272 271 270 269 270 270 266 263 262 260 259 257 255 253 250 247 245 243 241 239
170 168 139 178 210 245 179 181 183 182 207 227 217 203 200 197 188 182 191 197 197 181 168 199 231 245 259 278 287 289 294 298 284 263 238 256 272 282 291 294 292 290 283 279 281 281 278 276 270 267 276 288 292 289 287 286 281 279 282 285 288 289 283 276 272 270 269 269 270 274 279 276 269 266 264 262 260 258 255 251 248 246 244 242 241 238
165 164 165 172 182 221 160 153 163 194 215 234 255 208 201 195 188 198 214 206 194 185 186 221 240 240 243 244 252 267 275 280 281 266 227 236 262 282 284 280 277 275 271 265 263 261 260 265 272 279 285 285 285 286 287 283 276 278 281 282 283 282 274 267 266 266 265 269 278 285 283 277 270 267 266 264 261 257 252 248 246 245 244 242 239 236
161 161 157 138 141 167 121 112 167 213 204 27 338 284 208 197 193 203 226 216 190 198 210 229 243 235 231 237 242 251 265 281 287 274 253 238 234 246 262 270 271 268 266 267 269 272 276 280 288 292 288 285 286 287 286 284 282 283 282 278 271 267 263 260 260 262 268 279 288 288 282 275 269 267 267 266 261 257 252 249 247 244 242 239 236 234
156 160 150 135 154 168 55 142 207 221 83 32 291 280 184 172 180 187 242 241 196 195 203 219 234 235 233 240 245 252 282 310 291 265 244 231 231 233 240 254 264 264 263 265 269 277 286 291 292 292 293 295 295 293 289 288 286 281 281 278 262 250 250 254 260 271 282 289 290 286 280 274 268 265 265 263 259 256 253 250 247 243 240 237 235 235
147 147 130 151 193 175 136 207 251 319 9 307 261 235 147 157 163 159 220 250 205 192 200 215 230 237 240 244 248 262 316 328 299 277 234 221 231 235 236 243 256 268 274 275 277 281 285 292 298 304 309 313 313 310 307 306 305 300 298 296 288 281 282 283 283 288 290 288 287 284 279 273 266 263 263 258 254 254 253 250 246 242 237 234 233 233
153 168 175 190 197 137 126 232 286 340 291 257 232 174 145 171 174 163 182 252 221 202 203 211 224 233 238 244 248 258 305 304 285 277 230 232 240 237 245 256 259 270 281 286 290 293 295 301 309 313 317 317 313 311 310 311 313 313 309 305 303 303 305 302 296 293 288 284 284 282 278 273 267 264 260 254 253 255 254 250 245 240 235 231 231 232
184 184 151 162 184 148 147 204 215 197 242 250 234 208 192 188 169 145 160 253 238 209 201 208 221 228 234 242 240 219 208 264 268 264 256 268 261 222 239 274 280 279 287 291 292 294 299 306 312 312 312 310 308 309 311 310 310 308 301 297 297 298 297 292 289 289 288 287 286 283 280 277 271 265 258 255 257 256 252 248 244 238 233 230 231 233
196 155 138 168 199 189 175 206 226 223 248 245 232 232 222 178 133 126 200 259 240 196 194 207 220 227 228 232 226 192 195 239 258 274 288 287 291 259 237 274 292 296 298 299 299 300 302 306 308 306 305 303 303 308 310 309 308 302 294 292 292 288 283 282 285 288 288 287 285 283 281 278 271 265 259 257 259 257 251 247 242 235 231 228 228 231
193 183 181 195 209 201 195 220 246 249 252 242 218 199 191 154 126 165 216 234 209 198 206 204 214 229 231 224 208 193 217 237 257 299 322 315 311 305 287 289 297 296 292 293 299 304 306 305 302 296 295 298 302 307 309 309 308 301 296 296 291 283 282 285 287 288 286 284 282 280 278 275 270 266 263 261 259 255 249 244 238 232 228 224 222 223
182 187 189 193 205 205 193 216 260 269 255 233 195 172 172 169 193 217 219 208 199 222 225 201 206 223 228 221 212 218 243 264 284 308 314 307 301 297 297 303 305 302 300 299 302 306 304 302 300 295 295 300 305 308 308 308 304 297 297 296 290 288 290 291 289 287 285 283 281 279 276 274 271 268 265 261 256 250 246 241 234 230 227 221 216 216
175 176 193 190 192 189 170 185 223 259 257 188 139 126 173 200 214 210 208 242 228 202 199 223 241 245 236 239 241 242 263 289 295 297 295 290 289 287 288 292 294 297 301 301 302 304 303 299 296 295 298 303 308 310 310 307 300 296 294 290 293 298 298 294 290 288 286 283 281 279 276 273 270 267 263 258 253 247 243 237 229 225 223 218 211 208
184 174 192 200 191 179 183 201 213 225 224 176 158 181 212 222 228 186 163 272 273 207 174 246 287 296 301 303 291 279 279 285 289 295 295 291 292 291 287 287 287 292 297 296 298 303 305 299 295 296 299 303 308 312 312 306 298 295 292 295 302 307 305 298 295 292 287 283 280 277 275 273 270 265 260 255 249 244 239 235 227 221 219 217 210 204
219 173 153 188 210 195 190 217 239 244 242 217 193 211 239 256 277 308 332 297 293 309 84 22 293 298 313 324 313 303 301 297 296 299 299 298 302 302 297 296 296 296 298 298 301 306 308 302 298 299 301 304 308 312 312 310 300 290 293 303 310 311 306 301 299 294 288 284 280 277 276 272 268 264 258 252 245 238 234 231 226 220 216 215 211 205
267 108 94 113 265 278 260 252 253 266 276 268 233 225 254 272 293 329 345 313 293 314 24 20 320 305 319 332 324 312 310 314 313 307 302 302 304 304 303 305 305 304 303 302 304 308 310 305 301 302 304 307 310 313 313 312 303 290 296 308 314 312 306 301 297 292 288 284 280 279 276 270 266 263 258 252 244 237 232 228 224 223 219 215 213 211
298 260 107 108 272 320 294 275 261 255 270 280 289 296 287 288 304 342 336 302 297 314 351 358 316 301 306 323 326 311 305 311 315 310 309 307 302 302 306 307 307 307 304 302 305 309 310 306 302 303 306 309 312 313 312 310 306 300 301 308 313 313 308 302 295 290 287 283 281 280 274 267 263 259 255 249 241 235 231 226 222 222 220 216 213 212
283 177 158 203 214 194 242 268 273 273 277 283 286 282 281 284 287 286 278 289 308 314 313 315 306 299 301 309 310 301 300 303 304 303 305 303 295 296 299 298 300 303 303 303 306 308 308 303 301 304 304 304 308 311 309 305 304 305 305 307 309 309 306 300 295 290 285 284 282 278 273 266 260 255 250 246 239 232 229 225 219 218 219 218 214 211
117 105 178 200 228 277 276 273 282 294 294 286 278 274 263 243 256 272 286 303 311 306 302 299 283 266 276 286 286 281 287 290 289 288 293 295 293 292 292 290 290 291 294 299 302 303 302 299 300 302 301 299 301 305 305 302 302 303 305 306 307 305 300 296 294 290 286 284 280 276 271 265 259 253 248 244 240 236 234 230 224 221 223 222 219 218
163 197 199 164 257 274 264 253 248 271 278 275 276 284 133 171 244 282 289 286 284 287 294 301 297 282 269 269 267 264 277 283 282 276 279 284 286 287 289 290 289 286 286 288 292 295 295 295 296 297 297 297 297 299 300 300 300 302 303 305 306 303 296 292 292 289 286 283 278 273 269 263 258 253 246 241 240 239 240 240 235 232 231 229 226 224
196 199 184 179 225 245 250 251 242 228 255 272 280 283 267 250 265 274 271 271 273 277 284 294 295 291 284 276 265 250 262 279 284 282 278 279 279 281 285 287 288 289 289 288 288 288 291 294 295 295 292 293 295 297 297 298 299 301 302 304 304 301 295 290 287 284 283 281 276 272 268 262 257 253 245 240 238 236 239 243 241 239 238 237 235 232